Year,Month,Day,Hour,Minute,Value (Times are PST for temperature in C)
2015,12,04,00,00,8.90
2015,12,04,00,01,8.90
2015,12,04,00,02,8.90
2015,12,04,00,03,8.90
2015,12,04,00,04,8.90
2015,12,04,00,05,8.90
2015,12,04,00,06,8.90
2015,12,04,00,07,8.90
2015,12,04,00,08,8.90
2015,12,04,00,09,8.90
2015,12,04,00,10,8.90
2015,12,04,00,11,8.90
2015,12,04,00,12,8.90
2015,12,04,00,13,8.90
2015,12,04,00,14,8.90
2015,12,04,00,15,8.80
2015,12,04,00,16,8.80
2015,12,04,00,17,8.80
2015,12,04,00,18,8.80
2015,12,04,00,19,8.80
2015,12,04,00,20,8.80
2015,12,04,00,21,8.80
2015,12,04,00,22,8.70
2015,12,04,00,23,8.70
2015,12,04,00,24,8.70
2015,12,04,00,25,8.70
2015,12,04,00,26,8.70
2015,12,04,00,27,8.70
2015,12,04,00,28,8.70
2015,12,04,00,29,8.60
2015,12,04,00,30,8.60
2015,12,04,00,31,8.60
2015,12,04,00,32,8.60
2015,12,04,00,33,8.60
2015,12,04,00,34,8.60
2015,12,04,00,35,8.50
2015,12,04,00,36,8.50
2015,12,04,00,37,8.50
2015,12,04,00,38,8.50
2015,12,04,00,39,8.50
2015,12,04,00,40,8.40
2015,12,04,00,41,8.40
2015,12,04,00,42,8.40
2015,12,04,00,43,8.40
2015,12,04,00,44,8.40
2015,12,04,00,45,8.40
2015,12,04,00,46,8.40
2015,12,04,00,47,8.40
2015,12,04,00,48,8.40
2015,12,04,00,49,8.40
2015,12,04,00,50,8.40
2015,12,04,00,51,8.30
2015,12,04,00,52,8.40
2015,12,04,00,53,8.40
2015,12,04,00,54,8.40
2015,12,04,00,55,8.40
2015,12,04,00,56,8.40
2015,12,04,00,57,8.40
2015,12,04,00,58,8.40
2015,12,04,00,59,8.40
2015,12,04,01,00,8.40
2015,12,04,01,01,8.40
2015,12,04,01,02,8.40
2015,12,04,01,03,8.50
2015,12,04,01,04,8.50
2015,12,04,01,05,8.50
2015,12,04,01,06,8.50
2015,12,04,01,07,8.50
2015,12,04,01,08,8.50
2015,12,04,01,09,8.50
2015,12,04,01,10,8.50
2015,12,04,01,11,8.50
2015,12,04,01,12,8.50
2015,12,04,01,13,8.50
2015,12,04,01,14,8.50
2015,12,04,01,15,8.50
2015,12,04,01,16,8.40
2015,12,04,01,17,8.40
2015,12,04,01,18,8.40
2015,12,04,01,19,8.40
2015,12,04,01,20,8.50
2015,12,04,01,21,8.40
2015,12,04,01,22,8.40
2015,12,04,01,23,8.40
2015,12,04,01,24,8.40
2015,12,04,01,25,8.40
2015,12,04,01,26,8.40
2015,12,04,01,27,8.40
2015,12,04,01,28,8.50
2015,12,04,01,29,8.50
2015,12,04,01,30,8.50
2015,12,04,01,31,8.50
2015,12,04,01,32,8.50
2015,12,04,01,33,8.50
2015,12,04,01,34,8.40
2015,12,04,01,35,8.40
2015,12,04,01,36,8.40
2015,12,04,01,37,8.50
2015,12,04,01,38,8.50
2015,12,04,01,39,8.50
2015,12,04,01,40,8.50
2015,12,04,01,41,8.50
2015,12,04,01,42,8.60
2015,12,04,01,43,8.60
2015,12,04,01,44,8.60
2015,12,04,01,45,8.60
2015,12,04,01,46,8.60
2015,12,04,01,47,8.60
2015,12,04,01,48,8.60
2015,12,04,01,49,8.60
2015,12,04,01,50,8.60
2015,12,04,01,51,8.60
2015,12,04,01,52,8.60
2015,12,04,01,53,8.60
2015,12,04,01,54,8.70
2015,12,04,01,55,8.70
2015,12,04,01,56,8.70
2015,12,04,01,57,8.70
2015,12,04,01,58,8.70
2015,12,04,01,59,8.70
2015,12,04,02,00,8.70
2015,12,04,02,01,8.70
2015,12,04,02,02,8.70
2015,12,04,02,03,8.80
2015,12,04,02,04,8.80
2015,12,04,02,05,8.80
2015,12,04,02,06,8.80
2015,12,04,02,07,8.80
2015,12,04,02,08,8.80
2015,12,04,02,09,8.80
2015,12,04,02,10,8.80
2015,12,04,02,11,8.80
2015,12,04,02,12,8.80
2015,12,04,02,13,8.80
2015,12,04,02,14,8.80
2015,12,04,02,15,8.80
2015,12,04,02,16,8.80
2015,12,04,02,17,8.80
2015,12,04,02,18,8.80
2015,12,04,02,19,8.80
2015,12,04,02,20,8.80
2015,12,04,02,21,8.80
2015,12,04,02,22,8.80
2015,12,04,02,23,8.80
2015,12,04,02,24,8.80
2015,12,04,02,25,8.80
2015,12,04,02,26,8.80
2015,12,04,08,39,7.70
2015,12,04,08,40,7.70
2015,12,04,08,41,7.70
2015,12,04,08,42,7.70
2015,12,04,08,43,7.70
2015,12,04,08,44,7.70
2015,12,04,08,45,7.70
2015,12,04,08,46,7.80
2015,12,04,08,47,7.80
2015,12,04,08,48,7.80
2015,12,04,08,49,7.80
2015,12,04,08,50,7.80
2015,12,04,08,51,7.80
2015,12,04,08,52,7.80
2015,12,04,08,53,7.70
2015,12,04,08,54,7.70
2015,12,04,08,55,7.70
2015,12,04,08,56,7.70
2015,12,04,08,57,7.70
2015,12,04,08,58,7.70
2015,12,04,08,59,7.70
2015,12,04,09,00,7.70
2015,12,04,09,01,7.70
2015,12,04,09,02,7.70
2015,12,04,09,03,7.70
2015,12,04,09,04,7.70
2015,12,04,09,05,7.70
2015,12,04,09,06,7.70
2015,12,04,09,07,7.70
2015,12,04,09,08,7.70
2015,12,04,09,09,7.70
2015,12,04,09,10,7.70
2015,12,04,09,11,7.70
2015,12,04,09,12,7.70
2015,12,04,09,13,7.70
2015,12,04,09,14,7.70
2015,12,04,09,15,7.70
2015,12,04,09,16,7.70
2015,12,04,09,17,7.80
2015,12,04,09,18,7.70
2015,12,04,09,19,7.70
2015,12,04,09,20,7.70
2015,12,04,09,21,7.70
2015,12,04,09,22,7.70
2015,12,04,09,23,7.70
2015,12,04,09,24,7.70
2015,12,04,09,25,7.70
2015,12,04,09,26,7.70
2015,12,04,09,27,7.70
2015,12,04,09,28,7.70
2015,12,04,09,29,7.70
2015,12,04,09,30,7.70
2015,12,04,09,31,7.70
2015,12,04,09,32,7.70
2015,12,04,09,33,7.80
2015,12,04,09,34,7.80
2015,12,04,09,35,7.80
2015,12,04,09,36,7.80
2015,12,04,09,37,7.90
2015,12,04,09,38,7.90
2015,12,04,09,39,8.00
2015,12,04,09,40,8.10
2015,12,04,09,41,8.20
2015,12,04,09,42,8.20
2015,12,04,09,43,8.30
2015,12,04,09,44,8.40
2015,12,04,09,45,8.50
2015,12,04,09,46,8.60
2015,12,04,09,47,8.70
2015,12,04,09,48,8.70
2015,12,04,09,49,8.80
2015,12,04,09,50,8.80
2015,12,04,09,51,8.90
2015,12,04,09,52,9.00
2015,12,04,09,53,9.10
2015,12,04,09,54,9.20
2015,12,04,09,55,9.20
2015,12,04,09,56,9.30
2015,12,04,09,57,9.40
2015,12,04,09,58,9.40
2015,12,04,09,59,9.50
2015,12,04,10,00,9.60
2015,12,04,10,01,9.50
2015,12,04,10,02,9.50
2015,12,04,10,03,9.40
2015,12,04,10,04,9.40
2015,12,04,10,05,9.30
2015,12,04,10,06,9.30
2015,12,04,10,07,9.30
2015,12,04,10,08,9.20
2015,12,04,10,09,9.20
2015,12,04,10,10,9.10
2015,12,04,10,11,9.10
2015,12,04,10,12,9.00
2015,12,04,10,13,8.90
2015,12,04,10,14,8.90
2015,12,04,10,15,8.80
2015,12,04,10,16,8.80
2015,12,04,10,17,8.80
2015,12,04,10,18,8.70
2015,12,04,10,19,8.70
2015,12,04,10,20,8.70
2015,12,04,10,21,8.70
2015,12,04,10,22,8.70
2015,12,04,10,23,8.70
2015,12,04,10,24,8.60
2015,12,04,10,25,8.60
2015,12,04,10,26,8.60
2015,12,04,10,27,8.50
2015,12,04,10,28,8.50
2015,12,04,10,29,8.40
2015,12,04,10,30,8.30
2015,12,04,10,31,8.30
2015,12,04,10,32,8.30
2015,12,04,10,33,8.30
2015,12,04,10,34,8.20
2015,12,04,10,35,8.20
2015,12,04,10,36,8.20
2015,12,04,10,37,8.20
2015,12,04,10,38,8.20
2015,12,04,10,39,8.20
2015,12,04,10,40,8.20
2015,12,04,10,41,8.20
2015,12,04,10,42,8.20
2015,12,04,10,43,8.20
2015,12,04,10,44,8.20
2015,12,04,10,45,8.20
2015,12,04,10,46,8.20
2015,12,04,10,47,8.20
2015,12,04,10,48,8.20
2015,12,04,10,49,8.20
2015,12,04,10,50,8.20
2015,12,04,10,51,8.20
2015,12,04,10,52,8.20
2015,12,04,10,53,8.20
2015,12,04,10,54,8.20
2015,12,04,10,55,8.20
2015,12,04,10,56,8.30
2015,12,04,10,57,8.30
2015,12,04,10,58,8.30
2015,12,04,10,59,8.30
2015,12,04,11,00,8.30
2015,12,04,11,01,8.30
2015,12,04,11,02,8.40
2015,12,04,11,03,8.50
2015,12,04,11,04,8.50
2015,12,04,11,05,8.60
2015,12,04,11,06,8.60
2015,12,04,11,07,8.60
2015,12,04,11,08,8.70
2015,12,04,11,09,8.70
2015,12,04,11,10,8.80
2015,12,04,11,11,8.80
2015,12,04,11,12,8.80
2015,12,04,11,13,8.90
2015,12,04,11,14,8.90
2015,12,04,11,15,9.00
2015,12,04,11,16,9.00
2015,12,04,11,17,9.10
2015,12,04,11,18,9.10
2015,12,04,11,19,9.10
2015,12,04,11,20,9.10
2015,12,04,11,21,9.20
2015,12,04,11,22,9.20
2015,12,04,11,23,9.20
2015,12,04,11,24,9.20
2015,12,04,11,25,9.20
2015,12,04,11,26,9.20
2015,12,04,11,27,9.20
2015,12,04,11,28,9.20
2015,12,04,11,29,9.20
2015,12,04,11,30,9.20
2015,12,04,11,31,9.30
2015,12,04,11,32,9.30
2015,12,04,11,33,9.30
2015,12,04,11,34,9.40
2015,12,04,11,35,9.50
2015,12,04,11,36,9.50
2015,12,04,11,37,9.60
2015,12,04,11,38,9.70
2015,12,04,11,39,9.80
2015,12,04,11,40,9.80
2015,12,04,11,41,9.80
2015,12,04,11,42,9.90
2015,12,04,11,43,9.90
2015,12,04,11,44,10.00
2015,12,04,11,45,10.00
2015,12,04,11,46,9.90
2015,12,04,11,47,9.90
2015,12,04,11,48,9.90
2015,12,04,11,49,9.90
2015,12,04,11,50,9.90
2015,12,04,11,51,10.00
2015,12,04,11,52,10.10
2015,12,04,11,53,10.10
2015,12,04,11,54,10.20
2015,12,04,11,55,10.20
2015,12,04,11,56,10.30
2015,12,04,11,57,10.30
2015,12,04,11,58,10.40
2015,12,04,11,59,10.50
2015,12,04,12,00,10.50
2015,12,04,12,01,10.60
2015,12,04,12,02,10.60
2015,12,04,12,03,10.70
2015,12,04,12,04,10.60
2015,12,04,12,05,10.60
2015,12,04,12,06,10.60
2015,12,04,12,07,10.50
2015,12,04,12,08,10.50
2015,12,04,12,09,10.40
2015,12,04,12,10,10.40
2015,12,04,12,11,10.40
2015,12,04,12,12,10.30
2015,12,04,12,13,10.30
2015,12,04,12,14,10.30
2015,12,04,12,15,10.30
2015,12,04,12,16,10.30
2015,12,04,12,17,10.30
2015,12,04,12,18,10.30
2015,12,04,12,19,10.30
2015,12,04,12,20,10.30
2015,12,04,12,21,10.30
2015,12,04,12,22,10.30
2015,12,04,12,23,10.30
2015,12,04,12,24,10.30
2015,12,04,12,25,10.30
2015,12,04,12,26,10.30
2015,12,04,12,27,10.30
2015,12,04,12,28,10.30
2015,12,04,12,29,10.20
2015,12,04,12,30,10.20
2015,12,04,12,31,10.30
2015,12,04,12,32,10.30
2015,12,04,12,33,10.30
2015,12,04,12,34,10.30
2015,12,04,12,35,10.30
2015,12,04,12,36,10.30
2015,12,04,12,37,10.30
2015,12,04,12,38,10.30
2015,12,04,12,39,10.30
2015,12,04,12,40,10.30
2015,12,04,12,41,10.30
2015,12,04,12,42,10.30
2015,12,04,12,43,10.20
2015,12,04,12,44,10.20
2015,12,04,12,45,10.10
2015,12,04,12,46,10.10
2015,12,04,12,47,10.00
2015,12,04,12,48,10.00
2015,12,04,12,49,9.90
2015,12,04,12,50,9.90
2015,12,04,12,51,9.90
2015,12,04,12,52,9.90
2015,12,04,12,53,10.00
2015,12,04,12,54,9.90
2015,12,04,12,55,9.90
2015,12,04,12,56,9.90
2015,12,04,12,57,9.90
2015,12,04,12,58,9.90
2015,12,04,12,59,9.90
2015,12,04,13,00,9.90
2015,12,04,13,01,9.90
2015,12,04,13,02,9.90
2015,12,04,13,03,9.90
2015,12,04,13,04,9.90
2015,12,04,13,05,9.90
2015,12,04,13,06,9.90
2015,12,04,13,07,9.90
2015,12,04,13,08,9.90
2015,12,04,13,09,9.90
2015,12,04,13,10,9.80
2015,12,04,13,11,9.80
2015,12,04,13,12,9.80
2015,12,04,13,13,9.70
2015,12,04,13,14,9.70
2015,12,04,13,15,9.60
2015,12,04,13,16,9.50
2015,12,04,13,17,9.50
2015,12,04,13,18,9.40
2015,12,04,13,19,9.40
2015,12,04,13,20,9.40
2015,12,04,13,21,9.30
2015,12,04,13,22,9.30
2015,12,04,13,23,9.30
2015,12,04,13,24,9.30
2015,12,04,13,25,9.30
2015,12,04,13,26,9.30
2015,12,04,13,27,9.30
2015,12,04,13,28,9.30
2015,12,04,13,29,9.30
2015,12,04,13,30,9.30
2015,12,04,13,31,9.30
2015,12,04,13,32,9.30
2015,12,04,13,33,9.40
2015,12,04,13,34,9.40
2015,12,04,13,35,9.40
2015,12,04,13,36,9.40
2015,12,04,13,37,9.40
2015,12,04,13,38,9.40
2015,12,04,13,39,9.50
2015,12,04,13,40,9.50
2015,12,04,13,41,9.60
2015,12,04,13,42,9.60
2015,12,04,13,43,9.70
2015,12,04,13,44,9.70
2015,12,04,13,45,9.70
2015,12,04,13,46,9.70
2015,12,04,13,47,9.70
2015,12,04,13,48,9.70
2015,12,04,13,49,9.70
2015,12,04,13,50,9.70
2015,12,04,13,51,9.70
2015,12,04,13,52,9.70
2015,12,04,13,53,9.80
2015,12,04,13,54,9.80
2015,12,04,13,55,9.80
2015,12,04,13,56,9.80
2015,12,04,13,57,9.80
2015,12,04,13,58,9.70
2015,12,04,13,59,9.70
2015,12,04,14,00,9.70
2015,12,04,14,01,9.70
2015,12,04,14,02,9.70
2015,12,04,14,03,9.70
2015,12,04,14,04,9.70
2015,12,04,14,05,9.60
2015,12,04,14,06,9.60
2015,12,04,14,07,9.60
2015,12,04,14,08,9.60
2015,12,04,14,09,9.60
2015,12,04,14,10,9.60
2015,12,04,14,11,9.60
2015,12,04,14,12,9.60
2015,12,04,14,13,9.60
2015,12,04,14,14,9.60
2015,12,04,14,15,9.60
2015,12,04,14,16,9.60
2015,12,04,14,17,9.60
2015,12,04,14,18,9.60
2015,12,04,14,19,9.60
2015,12,04,14,20,9.60
2015,12,04,14,21,9.60
2015,12,04,14,22,9.60
2015,12,04,14,23,9.60
2015,12,04,14,24,9.60
2015,12,04,14,25,9.60
2015,12,04,14,26,9.60
2015,12,04,14,27,9.60
2015,12,04,14,28,9.60
2015,12,04,14,29,9.60
2015,12,04,14,30,9.60
2015,12,04,14,31,9.60
2015,12,04,14,32,9.60
2015,12,04,14,33,9.60
2015,12,04,14,34,9.70
2015,12,04,14,35,9.70
2015,12,04,14,36,9.70
2015,12,04,14,37,9.70
2015,12,04,14,38,9.70
2015,12,04,14,39,9.80
2015,12,04,14,40,9.80
2015,12,04,14,41,9.80
2015,12,04,14,42,9.80
2015,12,04,14,43,9.80
2015,12,04,14,44,9.90
2015,12,04,14,45,9.90
2015,12,04,14,46,9.90
2015,12,04,14,47,9.90
2015,12,04,14,48,10.00
2015,12,04,14,49,10.00
2015,12,04,14,50,10.00
2015,12,04,14,51,10.00
2015,12,04,14,52,10.00
2015,12,04,14,53,10.00
2015,12,04,14,54,10.00
2015,12,04,14,55,10.00
2015,12,04,14,56,9.90
2015,12,04,14,57,9.90
2015,12,04,14,58,9.90
2015,12,04,14,59,10.00
2015,12,04,15,00,10.00
2015,12,04,15,01,9.90
2015,12,04,15,02,10.00
2015,12,04,15,03,9.90
2015,12,04,15,04,9.90
2015,12,04,15,05,9.90
2015,12,04,15,06,9.90
2015,12,04,15,07,9.90
2015,12,04,15,08,9.90
2015,12,04,15,09,9.90
2015,12,04,15,10,9.90
2015,12,04,15,11,9.80
2015,12,04,15,12,9.80
2015,12,04,15,13,9.80
2015,12,04,15,14,9.80
2015,12,04,15,15,9.90
2015,12,04,15,16,9.90
2015,12,04,15,17,9.90
2015,12,04,15,18,9.90
2015,12,04,15,19,9.90
2015,12,04,15,20,9.90
2015,12,04,15,21,9.90
2015,12,04,15,22,9.90
2015,12,04,15,23,9.80
2015,12,04,15,24,9.80
2015,12,04,15,25,9.80
2015,12,04,15,26,9.70
2015,12,04,15,27,9.70
2015,12,04,15,28,9.70
2015,12,04,15,29,9.70
2015,12,04,15,30,9.60
2015,12,04,15,31,9.60
2015,12,04,15,32,9.60
2015,12,04,15,33,9.60
2015,12,04,15,34,9.60
2015,12,04,15,35,9.50
2015,12,04,15,36,9.50
2015,12,04,15,37,9.50
2015,12,04,15,38,9.50
2015,12,04,15,39,9.50
2015,12,04,15,40,9.40
2015,12,04,15,41,9.40
2015,12,04,15,42,9.40
2015,12,04,15,43,9.40
2015,12,04,15,44,9.40
2015,12,04,15,45,9.40
2015,12,04,15,46,9.40
2015,12,04,15,47,9.40
2015,12,04,15,48,9.40
2015,12,04,15,49,9.40
2015,12,04,15,50,9.40
2015,12,04,15,51,9.40
2015,12,04,15,52,9.40
2015,12,04,15,53,9.40
2015,12,04,15,54,9.40
2015,12,04,15,55,9.40
2015,12,04,15,56,9.40
2015,12,04,15,57,9.40
2015,12,04,15,58,9.30
2015,12,04,15,59,9.30
2015,12,04,16,00,9.30
2015,12,04,16,01,9.30
2015,12,04,16,02,9.30
2015,12,04,16,03,9.30
2015,12,04,16,04,9.30
2015,12,04,16,05,9.30
2015,12,04,16,06,9.30
2015,12,04,16,07,9.30
2015,12,04,16,08,9.30
2015,12,04,16,09,9.30
2015,12,04,16,10,9.30
2015,12,04,16,11,9.30
2015,12,04,16,12,9.30
2015,12,04,16,13,9.30
2015,12,04,16,14,9.30
2015,12,04,16,15,9.30
2015,12,04,16,16,9.20
2015,12,04,16,17,9.20
2015,12,04,16,18,9.20
2015,12,04,16,19,9.20
2015,12,04,16,20,9.20
2015,12,04,16,21,9.20
2015,12,04,16,22,9.20
2015,12,04,16,23,9.20
2015,12,04,16,24,9.20
2015,12,04,16,25,9.10
2015,12,04,16,26,9.10
2015,12,04,16,27,9.10
2015,12,04,16,28,9.10
2015,12,04,16,29,9.10
2015,12,04,16,30,9.10
2015,12,04,16,31,9.10
2015,12,04,16,32,9.10
2015,12,04,16,33,9.10
2015,12,04,16,34,9.10
2015,12,04,16,35,9.10
2015,12,04,16,36,9.10
2015,12,04,16,37,9.10
2015,12,04,16,38,9.10
2015,12,04,16,39,9.10
2015,12,04,16,40,9.10
2015,12,04,16,41,9.10
2015,12,04,16,42,9.10
2015,12,04,16,43,9.10
2015,12,04,16,44,9.00
2015,12,04,16,45,9.00
2015,12,04,16,46,9.00
2015,12,04,16,47,9.00
2015,12,04,16,48,8.90
2015,12,04,16,49,8.90
2015,12,04,16,50,8.90
2015,12,04,16,51,8.90
2015,12,04,16,52,8.90
2015,12,04,16,53,8.90
2015,12,04,16,54,8.90
2015,12,04,16,55,8.90
2015,12,04,16,56,8.90
2015,12,04,16,57,8.90
2015,12,04,16,58,8.90
2015,12,04,16,59,8.90
2015,12,04,17,00,8.90
2015,12,04,17,01,9.00
2015,12,04,17,02,9.00
2015,12,04,17,03,9.00
2015,12,04,17,04,9.00
2015,12,04,17,05,9.00
2015,12,04,17,06,9.10
2015,12,04,17,07,9.10
2015,12,04,17,08,9.10
2015,12,04,17,09,9.10
2015,12,04,17,10,9.10
2015,12,04,17,11,9.10
2015,12,04,17,12,9.10
2015,12,04,17,13,9.20
2015,12,04,17,14,9.20
2015,12,04,17,15,9.20
2015,12,04,17,16,9.20
2015,12,04,17,17,9.20
2015,12,04,17,18,9.20
2015,12,04,17,19,9.20
2015,12,04,17,20,9.20
2015,12,04,17,21,9.20
2015,12,04,17,22,9.20
2015,12,04,17,23,9.20
2015,12,04,17,24,9.20
2015,12,04,17,25,9.20
2015,12,04,17,26,9.20
2015,12,04,17,27,9.30
2015,12,04,17,28,9.20
2015,12,04,17,29,9.30
2015,12,04,17,30,9.30
2015,12,04,17,31,9.20
2015,12,04,17,32,9.20
2015,12,04,17,33,9.20
2015,12,04,17,34,9.20
2015,12,04,17,35,9.20
2015,12,04,17,36,9.20
2015,12,04,17,37,9.20
2015,12,04,17,38,9.20
2015,12,04,17,39,9.20
2015,12,04,17,40,9.20
2015,12,04,17,41,9.20
2015,12,04,17,42,9.20
2015,12,04,17,43,9.20
2015,12,04,17,44,9.20
2015,12,04,17,45,9.20
2015,12,04,17,46,9.20
2015,12,04,17,47,9.20
2015,12,04,17,48,9.20
2015,12,04,17,49,9.10
2015,12,04,17,50,9.10
2015,12,04,17,51,9.10
2015,12,04,17,52,9.10
2015,12,04,17,53,9.10
2015,12,04,17,54,9.10
2015,12,04,17,55,9.10
2015,12,04,17,56,9.10
2015,12,04,17,57,9.00
2015,12,04,17,58,9.00
2015,12,04,17,59,9.00
2015,12,04,18,00,8.90
2015,12,04,18,01,8.90
2015,12,04,18,02,8.90
2015,12,04,18,03,8.90
2015,12,04,18,04,8.90
2015,12,04,18,05,8.90
2015,12,04,18,06,8.90
2015,12,04,18,07,8.80
2015,12,04,18,08,8.80
2015,12,04,18,09,8.80
2015,12,04,18,10,8.80
2015,12,04,18,11,8.80
2015,12,04,18,12,8.80
2015,12,04,18,13,8.80
2015,12,04,18,14,8.80
2015,12,04,18,15,8.80
2015,12,04,18,16,8.80
2015,12,04,18,17,8.80
2015,12,04,18,18,8.80
2015,12,04,18,19,8.80
2015,12,04,18,20,8.80
2015,12,04,18,21,8.80
2015,12,04,18,22,8.80
2015,12,04,18,23,8.80
2015,12,04,18,24,8.80
2015,12,04,18,25,8.80
2015,12,04,18,26,8.80
2015,12,04,18,27,8.80
2015,12,04,18,28,8.80
2015,12,04,18,29,8.80
2015,12,04,18,30,8.80
2015,12,04,18,31,8.80
2015,12,04,18,32,8.70
2015,12,04,18,33,8.70
2015,12,04,18,34,8.70
2015,12,04,18,35,8.70
2015,12,04,18,36,8.70
2015,12,04,18,37,8.70
2015,12,04,18,38,8.70
2015,12,04,18,39,8.70
2015,12,04,18,40,8.70
2015,12,04,18,41,8.70
2015,12,04,18,42,8.70
2015,12,04,18,43,8.70
2015,12,04,18,44,8.70
2015,12,04,18,45,8.70
2015,12,04,18,46,8.70
2015,12,04,18,47,8.70
2015,12,04,18,48,8.70
2015,12,04,18,49,8.80
2015,12,04,18,50,8.80
2015,12,04,18,51,8.80
2015,12,04,18,52,8.80
2015,12,04,18,53,8.80
2015,12,04,18,54,8.80
2015,12,04,18,55,8.80
2015,12,04,18,56,8.80
2015,12,04,18,57,8.70
2015,12,04,18,58,8.80
2015,12,04,18,59,8.80
2015,12,04,19,00,8.80
2015,12,04,19,01,8.80
2015,12,04,19,02,8.70
2015,12,04,19,03,8.70
2015,12,04,19,04,8.70
2015,12,04,19,05,8.80
2015,12,04,19,06,8.70
2015,12,04,19,07,8.70
2015,12,04,19,08,8.70
2015,12,04,19,09,8.70
2015,12,04,19,10,8.70
2015,12,04,19,11,8.80
2015,12,04,19,12,8.80
2015,12,04,19,13,8.80
2015,12,04,19,14,8.80
2015,12,04,19,15,8.80
2015,12,04,19,16,8.70
2015,12,04,19,17,8.70
2015,12,04,19,18,8.70
2015,12,04,19,19,8.70
2015,12,04,19,20,8.70
2015,12,04,19,21,8.70
2015,12,04,19,22,8.70
2015,12,04,19,23,8.70
2015,12,04,19,24,8.70
2015,12,04,19,25,8.70
2015,12,04,19,26,8.60
2015,12,04,19,27,8.60
2015,12,04,19,28,8.60
2015,12,04,19,29,8.60
2015,12,04,19,30,8.60
2015,12,04,19,31,8.50
2015,12,04,19,32,8.50
2015,12,04,19,33,8.50
2015,12,04,19,34,8.50
2015,12,04,19,35,8.40
2015,12,04,19,36,8.40
2015,12,04,19,37,8.40
2015,12,04,19,38,8.40
2015,12,04,19,39,8.30
2015,12,04,19,40,8.30
2015,12,04,19,41,8.30
2015,12,04,19,42,8.30
2015,12,04,19,43,8.30
2015,12,04,19,44,8.30
2015,12,04,19,45,8.30
2015,12,04,19,46,8.30
2015,12,04,19,47,8.20
2015,12,04,19,48,8.20
2015,12,04,19,49,8.20
2015,12,04,19,50,8.20
2015,12,04,19,51,8.20
2015,12,04,19,52,8.20
2015,12,04,19,53,8.20
2015,12,04,19,54,8.20
2015,12,04,19,55,8.10
2015,12,04,19,56,8.10
2015,12,04,19,57,8.10
2015,12,04,19,58,8.10
2015,12,04,19,59,8.10
2015,12,04,20,00,8.10
2015,12,04,20,01,8.10
2015,12,04,20,02,8.10
2015,12,04,20,03,8.10
2015,12,04,20,04,8.10
2015,12,04,20,05,8.10
2015,12,04,20,06,8.10
2015,12,04,20,07,8.10
2015,12,04,20,08,8.10
2015,12,04,20,09,8.10
2015,12,04,20,10,8.00
2015,12,04,20,11,8.00
2015,12,04,20,12,8.00
2015,12,04,20,13,8.00
2015,12,04,20,14,7.90
2015,12,04,20,15,7.90
2015,12,04,20,16,7.90
2015,12,04,20,17,7.90
2015,12,04,20,18,7.90
2015,12,04,20,19,7.90
2015,12,04,20,20,7.90
2015,12,04,20,21,7.90
2015,12,04,20,22,7.90
2015,12,04,20,23,7.90
2015,12,04,20,24,7.80
2015,12,04,20,25,7.80
2015,12,04,20,26,7.80
2015,12,04,20,27,7.70
2015,12,04,20,28,7.70
2015,12,04,20,29,7.70
2015,12,04,20,30,7.60
2015,12,04,20,31,7.60
2015,12,04,20,32,7.60
2015,12,04,20,33,7.60
2015,12,04,20,34,7.60
2015,12,04,20,35,7.60
2015,12,04,20,36,7.60
2015,12,04,20,37,7.60
2015,12,04,20,38,7.60
2015,12,04,20,39,7.60
2015,12,04,20,40,7.60
2015,12,04,20,41,7.60
2015,12,04,20,42,7.60
2015,12,04,20,43,7.60
2015,12,04,20,44,7.60
2015,12,04,20,45,7.60
2015,12,04,20,46,7.60
2015,12,04,20,47,7.60
2015,12,04,20,48,7.60
2015,12,04,20,49,7.60
2015,12,04,20,50,7.60
2015,12,04,20,51,7.60
2015,12,04,20,52,7.60
2015,12,04,20,53,7.60
2015,12,04,20,54,7.70
2015,12,04,20,55,7.70
2015,12,04,20,56,7.70
2015,12,04,20,57,7.70
2015,12,04,20,58,7.70
2015,12,04,20,59,7.70
2015,12,04,21,00,7.70
2015,12,04,21,01,7.70
2015,12,04,21,02,7.70
2015,12,04,21,03,7.70
2015,12,04,21,04,7.70
2015,12,04,21,05,7.70
2015,12,04,21,06,7.80
2015,12,04,21,07,7.80
2015,12,04,21,08,7.80
2015,12,04,21,09,7.80
2015,12,04,21,10,7.80
2015,12,04,21,11,7.80
2015,12,04,21,12,7.90
2015,12,04,21,13,7.90
2015,12,04,21,14,8.00
2015,12,04,21,15,8.00
2015,12,04,21,16,8.10
2015,12,04,21,17,8.10
2015,12,04,21,18,8.20
2015,12,04,21,19,8.20
2015,12,04,21,20,8.20
2015,12,04,21,21,8.20
2015,12,04,21,22,8.20
2015,12,04,21,23,8.20
2015,12,04,21,24,8.20
2015,12,04,21,25,8.20
2015,12,04,21,26,8.20
2015,12,04,21,27,8.20
2015,12,04,21,28,8.20
2015,12,04,21,29,8.20
2015,12,04,21,30,8.20
2015,12,04,21,31,8.20
2015,12,04,21,32,8.20
2015,12,04,21,33,8.20
2015,12,04,21,34,8.20
2015,12,04,21,35,8.20
2015,12,04,21,36,8.20
2015,12,04,21,37,8.20
2015,12,04,21,38,8.20
2015,12,04,21,39,8.10
2015,12,04,21,40,8.10
2015,12,04,21,41,8.10
2015,12,04,21,42,8.10
2015,12,04,21,43,8.10
2015,12,04,21,44,8.10
2015,12,04,21,45,8.10
2015,12,04,21,46,8.10
2015,12,04,21,47,8.10
2015,12,04,21,48,8.10
2015,12,04,21,49,8.10
2015,12,04,21,50,8.10
2015,12,04,21,51,8.10
2015,12,04,21,52,8.10
2015,12,04,21,53,8.10
2015,12,04,21,54,8.10
2015,12,04,21,55,8.10
2015,12,04,21,56,8.10
2015,12,04,21,57,8.10
2015,12,04,21,58,8.10
2015,12,04,21,59,8.10
2015,12,04,22,00,8.10
2015,12,04,22,01,8.10
2015,12,04,22,02,8.10
2015,12,04,22,03,8.10
2015,12,04,22,04,8.10
2015,12,04,22,05,8.10
2015,12,04,22,06,8.10
2015,12,04,22,07,8.10
2015,12,04,22,08,8.10
2015,12,04,22,09,8.10
2015,12,04,22,10,8.10
2015,12,04,22,11,8.10
2015,12,04,22,12,8.10
2015,12,04,22,13,8.10
2015,12,04,22,14,8.10
2015,12,04,22,15,8.10
2015,12,04,22,16,8.10
2015,12,04,22,17,8.10
2015,12,04,22,18,8.10
2015,12,04,22,19,8.10
2015,12,04,22,20,8.10
2015,12,04,22,21,8.10
2015,12,04,22,22,8.10
2015,12,04,22,23,8.00
2015,12,04,22,24,8.00
2015,12,04,22,25,8.00
2015,12,04,22,26,7.90
2015,12,04,22,27,7.90
2015,12,04,22,28,7.90
2015,12,04,22,29,7.90
2015,12,04,22,30,7.90
2015,12,04,22,31,7.90
2015,12,04,22,32,7.80
2015,12,04,22,33,7.80
2015,12,04,22,34,7.80
2015,12,04,22,35,7.80
2015,12,04,22,36,7.80
2015,12,04,22,37,7.80
2015,12,04,22,38,7.80
2015,12,04,22,39,7.80
2015,12,04,22,40,7.80
2015,12,04,22,41,7.80
2015,12,04,22,42,7.80
2015,12,04,22,43,7.80
2015,12,04,22,44,7.80
2015,12,04,22,45,7.80
2015,12,04,22,46,7.80
2015,12,04,22,47,7.80
2015,12,04,22,48,7.70
2015,12,04,22,49,7.70
2015,12,04,22,50,7.70
2015,12,04,22,51,7.70
2015,12,04,22,52,7.70
2015,12,04,22,53,7.70
2015,12,04,22,54,7.60
2015,12,04,22,55,7.60
2015,12,04,22,56,7.60
2015,12,04,22,57,7.60
2015,12,04,22,58,7.60
2015,12,04,22,59,7.60
2015,12,04,23,00,7.50
2015,12,04,23,01,7.50
2015,12,04,23,02,7.50
2015,12,04,23,03,7.50
2015,12,04,23,04,7.40
2015,12,04,23,05,7.40
2015,12,04,23,06,7.40
2015,12,04,23,07,7.40
2015,12,04,23,08,7.30
2015,12,04,23,09,7.30
2015,12,04,23,10,7.30
2015,12,04,23,11,7.30
2015,12,04,23,12,7.30
2015,12,04,23,13,7.30
2015,12,04,23,14,7.30
2015,12,04,23,15,7.30
2015,12,04,23,16,7.30
2015,12,04,23,17,7.30
2015,12,04,23,18,7.30
2015,12,04,23,19,7.30
2015,12,04,23,20,7.30
2015,12,04,23,21,7.30
2015,12,04,23,22,7.30
2015,12,04,23,23,7.30
2015,12,04,23,24,7.30
2015,12,04,23,25,7.30
2015,12,04,23,26,7.30
2015,12,04,23,27,7.30
2015,12,04,23,28,7.30
2015,12,04,23,29,7.30
2015,12,04,23,30,7.20
2015,12,04,23,31,7.20
2015,12,04,23,32,7.20
2015,12,04,23,33,7.20
2015,12,04,23,34,7.20
2015,12,04,23,35,7.20
2015,12,04,23,36,7.20
2015,12,04,23,37,7.20
2015,12,04,23,38,7.20
2015,12,04,23,39,7.20
2015,12,04,23,40,7.10
2015,12,04,23,41,7.10
2015,12,04,23,42,7.10
2015,12,04,23,43,7.10
2015,12,04,23,44,7.10
2015,12,04,23,45,7.10
2015,12,04,23,46,7.00
2015,12,04,23,47,7.00
2015,12,04,23,48,7.00
2015,12,04,23,49,7.00
2015,12,04,23,50,7.00
2015,12,04,23,51,7.00
2015,12,04,23,52,7.00
2015,12,04,23,53,7.00
2015,12,04,23,54,6.90
2015,12,04,23,55,6.90
2015,12,04,23,56,6.90
2015,12,04,23,57,6.90
2015,12,04,23,58,6.90
2015,12,04,23,59,6.90
